Flag Weather past 2 weeks in Biel, Switzerland

Now
47 °F

Cool.


Feels Like: 47 °F
Forecast: 31 / 52 °F
Wind: 1 mph from Southeast

Location: Grenchen

Current Time: Nov 27, 2014 at 5:02:35 PM

Latest Report: Nov 27, 2014 at 4:00 PM


Visibility: N/A

Pressure: 29.79 "Hg

Humidity: 93%

Dew point: 45 °F

Location of BielLocation

Historic Weather in Biel — Graph

°F

Biel temperature yesterday

Maximum temperature yesterday: 50 °F (at 3:00 PM)
Minimum temperature yesterday: 45 °F (at 7:00 AM)
Average temperature yesterday: 48 °F

Past Weeks' High & Low Weather Summary

 TemperatureHumidityPressure
High53 °F (Nov 13, 2:00 PM)100% (Nov 12, 7:00 PM)30.33 "Hg (Nov 12, 7:00 PM)
Low34 °F (Nov 20, 12:00 AM)72% (Nov 19, 4:00 PM)29.61 "Hg (Nov 15, 5:00 PM)
Average44 °F96%30.00 "Hg
* Reported Nov 12 3:00 PM — Nov 27 3:00 PM, Biel, Weather by CustomWeather, © 2014

Note: Actual official high and low records may vary slightly from our data, if they occured in-between our weather recording intervals... More about our weather records

Advertising

Biel weather history for previous 24 hours

 ConditionsComfort  
Time TempWeatherWind HumidityBarometerVisibility
3:00 PM
Nov 27
48 °FCool.1 mph90%29.79 "HgN/A
2:00 PM48 °FCool.1 mph91%29.80 "HgN/A
1:00 PM47 °FCool.2 mph91%29.81 "HgN/A
12:00 PM47 °FCool.2 mph91%29.81 "HgN/A
11:00 AM47 °FCool.1 mph91%29.83 "HgN/A
10:00 AM47 °FCool.2 mph97%29.83 "HgN/A
9:00 AM46 °FCool.3 mph99%29.83 "HgN/A
8:00 AM46 °FCool.2 mph99%29.83 "HgN/A
7:00 AM46 °FCool.7 mph99%29.82 "HgN/A
6:00 AM46 °FCool.3 mph99%29.84 "HgN/A
5:00 AM46 °FCool.5 mph99%29.84 "HgN/A
4:00 AM46 °FCool.3 mph100%29.87 "HgN/A
3:00 AM46 °FCool.5 mph99%29.88 "HgN/A
2:00 AM47 °FCool.2 mph100%29.88 "HgN/A
1:00 AM47 °FCool.3 mph99%29.90 "HgN/A
12:00 AM47 °FCool.3 mph98%29.91 "HgN/A
11:00 PM
Nov 26
48 °FCool.3 mph96%29.93 "HgN/A
10:00 PM48 °FCool.2 mph94%29.93 "HgN/A
9:00 PM48 °FCool.1 mph96%29.93 "HgN/A
8:00 PM48 °FCool.1 mph95%29.94 "HgN/A
7:00 PM48 °FCool.2 mph96%29.95 "HgN/A
6:00 PM49 °FCool.3 mph95%29.95 "HgN/A
5:00 PM49 °FCool.3 mph93%29.94 "HgN/A
Weather by CustomWeather, © 2014

See weather overviewHow to use our weather pages